Location: ?
(35.3436°N, 139.3168°E)
Time: 11:16:25
(UTC+00:00)

X-37B - Pass Details

Date: 16 May 2021
Orbit: 386 x 389 km, 45.0° (Epoch: 10 June)

Event Time Altitude Azimuth Distance (km) Brightness Sun altitude
Rises 10:41:44 0° 299° (WNW) 2,272 6.6 -11.7°
Reaches altitude 10° 10:43:49 10° 296° (WNW) 1,414 4.9 -12.0°
Maximum altitude 10:46:59 66° 214° (SW) 425 0.7 -12.6°
Enters shadow 10:48:42 24° 137° (SE) 850 1.7 -12.8°
